De Kalb, MO (64440)

7:18 PM CDT on August 31, 2015 (GMT -0500)
APRSWXNET | | Change Station
CLOSE
Current Station
Personal Weather Station
Location: Rushville, MO
Elevation: 794 ft
Nearby Weather Stations

Elev 794 ft 39.66 °N, 95.01 °W | Updated 26 minutes ago

Clear
Clear
87 °F
Feels Like 94 °F
N
0
Wind Variable Wind from WSW
Gusts 0.0 mph

Today
High -- | Low -- °F
--% Chance of Precip.
Yesterday
High -- | Low -- °F
Precip. -- in
6:46 AM 7:52 PM
Waning Gibbous, 93% visible
Pressure 29.91 in
Visibility 10.0 miles
Clouds Clear
Heat Index 94 °F
Dew Point 72 °F
Humidity 62%
Rainfall in
Snow Depth Not available.
UV 1 out of 12
Pollen 9.90 out of 12
Air Quality Not available.
Flu Activity Not available.
METAR KSTJ 312353Z AUTO 17006KT 10SM CLR 29/22 A2993 RMK AO2 SLP126 T02940217 10311 20283 55002
Pressure 29.91 in
Visibility 10.0 miles
Clouds Clear
Heat Index 94 °F
Dew Point 72 °F
Humidity 62%
Rainfall in
Snow Depth Not available.
UV 1 out of 12
Pollen 9.90 out of 12
Air Quality Not available.
Flu Activity Not available.
METAR KSTJ 312353Z AUTO 17006KT 10SM CLR 29/22 A2993 RMK AO2 SLP126 T02940217 10311 20283 55002

10-Day Weather Forecast

×

Almanac

Astronomy

Aug. 31, 2015 Rise Set
Actual Time
Civil Twilight
Nautical Twilight
Astronomical Twilight
Moon
Length of Visible Light
Length of Day
Tomorrow will be .
, % of the Moon is Illuminated

Today's Extremes

State Highs State Lows

Community

WunderPhotos

Upload Photos

1,851,403 photos uploaded!

WunderBlogs® & News

Nearby

Air Quality

  Air Quality AQ Index Pollutant
Not available.

Snow Depth

Station Depth Elevation

Earthquake Activity

City Distance Mag. Time & Date
Minimum magnitude displayed is 2.5.

Coastal Water Temperatures

Place Temperature

Stations

Nearby Weather Stations

Station Location Temp. Windchill Dew Point Humidity Wind Precip. Elev Updated Type